TimeEDT,TemperatureF,Dew PointF,Humidity,Sea Level PressureIn,VisibilityMPH,Wind Direction,Wind SpeedMPH,Gust SpeedMPH,PrecipitationIn,Events,Conditions,WindDirDegrees,DateUTC
12:15 AM,64.4,55.4,73,30.22,10.0,SSE,6.9,-,N/A,,Clear,150,2013-05-02 04:15:00
12:35 AM,64.4,55.4,73,30.22,10.0,SSE,5.8,-,N/A,,Clear,150,2013-05-02 04:35:00
12:55 AM,62.6,55.4,77,30.23,10.0,SSE,5.8,-,N/A,,Clear,160,2013-05-02 04:55:00
1:15 AM,62.6,55.4,77,30.23,10.0,SSE,5.8,-,N/A,,Clear,160,2013-05-02 05:15:00
1:35 AM,62.6,55.4,77,30.23,10.0,SSE,4.6,-,N/A,,Clear,160,2013-05-02 05:35:00
1:55 AM,60.8,55.4,82,30.23,10.0,SSE,5.8,-,N/A,,Clear,160,2013-05-02 05:55:00
2:35 AM,60.8,53.6,77,30.21,10.0,SSE,4.6,-,N/A,,Clear,160,2013-05-02 06:35:00
2:55 AM,60.8,53.6,77,30.21,10.0,SSE,5.8,-,N/A,,Clear,160,2013-05-02 06:55:00
3:15 AM,60.8,53.6,77,30.21,10.0,SSE,5.8,-,N/A,,Clear,160,2013-05-02 07:15:00
3:35 AM,59.0,53.6,82,30.21,10.0,SSE,4.6,-,N/A,,Clear,160,2013-05-02 07:35:00
3:56 AM,59.0,51.8,77,30.21,10.0,SSE,4.6,-,N/A,,Clear,160,2013-05-02 07:56:00
4:11 AM,59.0,51.8,77,30.21,10.0,SE,5.8,-,N/A,,Clear,140,2013-05-02 08:11:00
4:31 AM,59.0,51.8,77,30.21,10.0,SSE,3.5,-,N/A,,Clear,150,2013-05-02 08:31:00
4:51 AM,59.0,51.8,77,30.21,10.0,SSE,4.6,-,N/A,,Clear,160,2013-05-02 08:51:00
5:11 AM,59.0,51.8,77,30.21,10.0,SSE,4.6,-,N/A,,Clear,150,2013-05-02 09:11:00
5:31 AM,59.0,51.8,77,30.21,10.0,SSE,4.6,-,N/A,,Clear,160,2013-05-02 09:31:00
5:51 AM,59.0,51.8,77,30.21,10.0,SSE,4.6,-,N/A,,Clear,150,2013-05-02 09:51:00
6:11 AM,59.0,51.8,77,30.21,10.0,SSE,4.6,-,N/A,,Clear,150,2013-05-02 10:11:00
6:31 AM,59.0,51.8,77,30.22,10.0,SSE,5.8,-,N/A,,Clear,150,2013-05-02 10:31:00
6:51 AM,59.0,51.8,77,30.22,10.0,SSE,5.8,-,N/A,,Clear,150,2013-05-02 10:51:00
7:11 AM,60.8,51.8,72,30.22,10.0,SSE,5.8,-,N/A,,Clear,150,2013-05-02 11:11:00
7:31 AM,60.8,51.8,72,30.22,10.0,SSE,5.8,-,N/A,,Clear,150,2013-05-02 11:31:00
7:52 AM,62.6,51.8,68,30.23,10.0,SSE,6.9,-,N/A,,Clear,150,2013-05-02 11:52:00
8:12 AM,64.4,51.8,64,30.24,10.0,SSE,8.1,-,N/A,,Clear,150,2013-05-02 12:12:00
8:32 AM,66.2,50.0,56,30.24,10.0,SSE,9.2,-,N/A,,Clear,150,2013-05-02 12:32:00
8:52 AM,68.0,50.0,52,30.24,10.0,SSE,9.2,-,N/A,,Clear,160,2013-05-02 12:52:00
9:12 AM,68.0,48.2,49,30.24,10.0,SSE,8.1,-,N/A,,Clear,150,2013-05-02 13:12:00
9:32 AM,69.8,50.0,49,30.24,10.0,SE,6.9,-,N/A,,Clear,140,2013-05-02 13:32:00
9:52 AM,69.8,50.0,49,30.24,10.0,SE,6.9,-,N/A,,Clear,130,2013-05-02 13:52:00
10:12 AM,71.6,50.0,46,30.24,10.0,SSE,5.8,-,N/A,,Clear,150,2013-05-02 14:12:00
10:33 AM,71.6,50.0,46,30.24,10.0,SSE,5.8,-,N/A,,Clear,150,2013-05-02 14:33:00
10:53 AM,73.4,50.0,44,30.24,10.0,ESE,3.5,-,N/A,,Clear,120,2013-05-02 14:53:00
11:13 AM,73.4,50.0,44,30.23,10.0,East,5.8,-,N/A,,Clear,100,2013-05-02 15:13:00
11:33 AM,75.2,50.0,41,30.23,10.0,SE,6.9,-,N/A,,Clear,130,2013-05-02 15:33:00
11:53 AM,77.0,48.2,36,30.23,10.0,ESE,9.2,-,N/A,,Clear,120,2013-05-02 15:53:00
12:13 PM,77.0,46.4,34,30.22,10.0,ESE,8.1,-,N/A,,Clear,120,2013-05-02 16:13:00
12:33 PM,78.8,46.4,32,30.22,10.0,SE,11.5,-,N/A,,Clear,140,2013-05-02 16:33:00
12:53 PM,78.8,46.4,32,30.21,10.0,SSE,10.4,16.1,N/A,,Clear,150,2013-05-02 16:53:00
1:13 PM,78.8,46.4,32,30.21,10.0,SE,9.2,-,N/A,,Clear,130,2013-05-02 17:13:00
1:33 PM,78.8,48.2,34,30.20,10.0,ESE,10.4,-,N/A,,Clear,120,2013-05-02 17:33:00
1:54 PM,78.8,48.2,34,30.19,10.0,SE,6.9,-,N/A,,Clear,130,2013-05-02 17:54:00
2:14 PM,78.8,50.0,36,30.19,10.0,SSE,12.7,18.4,N/A,,Clear,150,2013-05-02 18:14:00
2:34 PM,78.8,50.0,36,30.18,10.0,SE,13.8,-,N/A,,Clear,140,2013-05-02 18:34:00
2:54 PM,78.8,50.0,36,30.18,10.0,SSE,15.0,19.6,N/A,,Clear,150,2013-05-02 18:54:00
3:14 PM,80.6,51.8,37,30.17,10.0,SSE,16.1,20.7,N/A,,Clear,150,2013-05-02 19:14:00
3:34 PM,80.6,50.0,34,30.16,10.0,SE,11.5,18.4,N/A,,Clear,130,2013-05-02 19:34:00
3:54 PM,80.6,50.0,34,30.15,10.0,SSE,11.5,-,N/A,,Clear,150,2013-05-02 19:54:00
4:14 PM,80.6,50.0,34,30.15,10.0,SSE,10.4,-,N/A,,Clear,150,2013-05-02 20:14:00
4:34 PM,80.6,50.0,34,30.14,10.0,SSE,12.7,18.4,N/A,,Clear,150,2013-05-02 20:34:00
4:54 PM,80.6,50.0,34,30.14,10.0,South,9.2,17.3,N/A,,Scattered Clouds,180,2013-05-02 20:54:00
5:14 PM,80.6,51.8,37,30.13,10.0,SSE,10.4,19.6,N/A,,Scattered Clouds,150,2013-05-02 21:14:00
5:34 PM,78.8,51.8,39,30.13,10.0,SE,13.8,-,N/A,,Scattered Clouds,140,2013-05-02 21:34:00
5:55 PM,78.8,51.8,39,30.13,10.0,SE,12.7,-,N/A,,Clear,140,2013-05-02 21:55:00
6:15 PM,78.8,50.0,36,30.12,10.0,SE,12.7,-,N/A,,Clear,140,2013-05-02 22:15:00
6:35 PM,77.0,50.0,39,30.12,10.0,SSE,15.0,-,N/A,,Clear,150,2013-05-02 22:35:00
6:55 PM,77.0,50.0,39,30.12,10.0,SE,12.7,17.3,N/A,,Clear,140,2013-05-02 22:55:00
7:15 PM,77.0,48.2,36,30.11,10.0,SSE,13.8,-,N/A,,Clear,150,2013-05-02 23:15:00
7:35 PM,73.4,50.0,44,30.11,10.0,SE,13.8,-,N/A,,Clear,140,2013-05-02 23:35:00
7:55 PM,73.4,50.0,44,30.12,10.0,SE,12.7,-,N/A,,Clear,140,2013-05-02 23:55:00
8:15 PM,71.6,48.2,43,30.12,10.0,SE,18.4,-,N/A,,Clear,140,2013-05-03 00:15:00
8:35 PM,71.6,46.4,41,30.13,10.0,SE,15.0,-,N/A,,Clear,140,2013-05-03 00:35:00
8:55 PM,69.8,46.4,43,30.13,10.0,SE,13.8,-,N/A,,Clear,140,2013-05-03 00:55:00
9:11 PM,69.8,46.4,43,30.13,10.0,SE,11.5,-,N/A,,Clear,140,2013-05-03 01:11:00
9:31 PM,68.0,46.4,46,30.14,10.0,SE,12.7,-,N/A,,Clear,140,2013-05-03 01:31:00
9:51 PM,68.0,46.4,46,30.14,10.0,SE,10.4,-,N/A,,Clear,140,2013-05-03 01:51:00
10:11 PM,66.2,48.2,52,30.14,10.0,SE,9.2,-,N/A,,Clear,140,2013-05-03 02:11:00
10:31 PM,64.4,48.2,56,30.14,10.0,SE,8.1,-,N/A,,Clear,140,2013-05-03 02:31:00
10:51 PM,64.4,48.2,56,30.14,10.0,SE,6.9,-,N/A,,Clear,140,2013-05-03 02:51:00
11:11 PM,64.4,48.2,56,30.14,10.0,SE,5.8,-,N/A,,Clear,130,2013-05-03 03:11:00
11:31 PM,62.6,48.2,59,30.14,10.0,SE,6.9,-,N/A,,Clear,140,2013-05-03 03:31:00
11:52 PM,62.6,48.2,59,30.14,10.0,SE,5.8,-,N/A,,Clear,130,2013-05-03 03:52:00